Location: ????? ????
(37.9717°N, 23.4051°E)
Time: 07:36:43
(UTC+00:00)

ADEOS - Visible Passes

Search period start: 13 July 2024 00:00
Search period end: 23 July 2024 00:00
Orbit: 790 x 793 km, 98.9° (Epoch: 13 July)

Date Brightness Start Highest point End Pass type
(mag) Time Alt. Az. Time Alt. Az. Time Alt. Az.
14 Jul 6.1 18:50:59 10° SW 18:54:17 17° W 18:57:37 10° NW visible
15 Jul 5.3 18:20:27 10° SSW 18:25:04 32° W 18:29:43 10° NW visible
17 Jul 6.3 19:04:42 10° WSW 19:06:55 13° W 19:09:09 10° WNW visible
18 Jul 5.7 18:33:26 10° SSW 18:37:38 25° W 18:41:53 10° NW visible
21 Jul 6.1 18:46:37 10° SW 18:50:15 19° W 18:53:53 10° NW visible
22 Jul 5.1 18:16:17 10° SSW 18:21:02 36° W 18:25:50 10° NNW visible
